This is the latest recevied weather packets stored in our database for station/object DM4WH-13. If no packets are shown the sender has not sent any weather packets the latest 10 day(s).
| Time | Temp. | Humidity | Pressure | Rain* | Wind** | Luminosity | Snow |
|---|---|---|---|---|---|---|---|
| 1777565424 | 16.11° C | 36% | 1030.9 hPa | 0 mm | 0.45 m/s, 43° | - | - |
| 1777565111 | 16.11° C | 36% | 1030.9 hPa | 0 mm | 0.45 m/s, 91° | - | - |
| 1777564823 | 16.11° C | 36% | 1031 hPa | 0 mm | 0.89 m/s, 48° | - | - |
| 1777564511 | 17.22° C | 35% | 1031 hPa | 0 mm | 0.89 m/s, 316° | - | - |
| 1777564224 | 17.22° C | 34% | 1031 hPa | 0 mm | 0.45 m/s, 60° | - | - |
| 1777563911 | 16.11° C | 35% | 1031 hPa | 0 mm | 0.45 m/s, 30° | - | - |
| 1777563624 | 16.11° C | 35% | 1031.1 hPa | 0 mm | 0.45 m/s, 48° | - | - |
| 1777563311 | 16.11° C | 37% | 1031.2 hPa | 0 mm | 0.45 m/s, 276° | - | - |
| 1777563023 | 16.11° C | 35% | 1031.1 hPa | 0 mm | 0.89 m/s, 276° | - | - |
| 1777562711 | 16.11° C | 35% | 1031.2 hPa | 0 mm | 0.45 m/s, 292° | - | - |
| 1777562424 | 16.11° C | 35% | 1031.2 hPa | 0 mm | 0.89 m/s, 18° | - | - |
| 1777562111 | 16.11° C | 35% | 1031.2 hPa | 0 mm | 0.89 m/s, 354° | - | - |
| 1777561824 | 16.11° C | 35% | 1031.3 hPa | 0 mm | 0.89 m/s, 36° | - | - |
| 1777561511 | 16.11° C | 35% | 1031.3 hPa | 0 mm | 0.45 m/s, 34° | - | - |
| 1777561224 | 17.22° C | 34% | 1031.2 hPa | 0 mm | 0.89 m/s, 304° | - | - |
| 1777560911 | 17.22° C | 35% | 1031.3 hPa | 0 mm | 0.89 m/s, 294° | - | - |
| 1777560624 | 17.22° C | 35% | 1031.3 hPa | 0 mm | 0 m/s | - | - |
| 1777560311 | 16.11° C | 34% | 1031.4 hPa | 0 mm | 0.45 m/s, 24° | - | - |
| 1777560036 | 16.11° C | 34% | 1031.4 hPa | 0 mm | 0.45 m/s, 49° | - | - |
| 1777559723 | 16.11° C | 35% | 1031.6 hPa | 0 mm | 0.45 m/s, 316° | - | - |
| 1777559411 | 16.11° C | 36% | 1031.7 hPa | 0 mm | 0.45 m/s, 28° | - | - |
| 1777559123 | 16.11° C | 37% | 1031.5 hPa | 0 mm | 0.45 m/s, 38° | - | - |
| 1777558810 | 16.11° C | 33% | 1031.6 hPa | 0 mm | 0.45 m/s, 21° | - | - |
| 1777558523 | 16.11° C | 35% | 1031.6 hPa | 0 mm | 0.89 m/s, 25° | - | - |
| 1777558210 | 16.11° C | 35% | 1031.6 hPa | 0 mm | 0.45 m/s, 108° | - | - |
* Rain latest hour (hover to see other rain measurements)
** Current wind speed in m/s (hover to see current wind gust speed)